Location: Newark
(37.8333°N, 119.5000°W)
Time: 00:43:13
(UTC+00:00)

Vanguard 3 - All Passes

Search period start: 21 August 2019 00:00
Search period end: 31 August 2019 00:00
Orbit: 508 x 3263 km, 33.3° (Epoch: 20 August)

Date Brightness Start Highest point End Pass type
(mag) Time Alt. Az. Time Alt. Az. Time Alt. Az.
21 Aug - 01:06:31 10° SW 01:12:52 32° SSE 01:17:03 10° ESE daylight
21 Aug - 03:19:32 10° WSW 03:24:15 46° S 03:27:50 10° ESE visible
21 Aug - 05:31:56 10° WSW 05:35:09 27° SSW 05:38:29 10° SE visible
21 Aug - 23:51:37 10° SSW 23:58:52 26° SSE 00:03:40 10° ESE daylight
22 Aug - 02:04:41 10° WSW 02:10:44 45° S 02:14:44 10° E daylight
22 Aug - 04:17:49 10° W 04:21:51 39° S 04:25:17 10° ESE visible
22 Aug - 06:30:44 10° SW 06:32:42 14° SSW 06:34:49 10° S night (unlit)
22 Aug - 22:37:02 10° SSW 22:44:29 20° SSE 22:49:45 10° ESE daylight
23 Aug - 00:49:23 10° SW 00:56:58 39° SSE 01:01:39 10° E daylight
23 Aug - 03:03:12 10° WSW 03:08:28 49° S 03:12:12 10° ESE visible
23 Aug - 05:16:13 10° WSW 05:19:20 23° SSW 05:22:21 10° SE visible
23 Aug - 21:23:32 10° S 21:29:43 15° SSE 21:34:37 10° ESE daylight
23 Aug - 23:33:55 10° SW 23:42:51 33° SSE 23:48:24 10° E daylight
24 Aug - 01:47:57 10° WSW 01:54:52 51° S 01:59:12 10° E daylight
24 Aug - 04:01:44 10° W 04:06:03 37° SSW 04:09:30 10° SE visible
24 Aug - 22:18:38 10° SSW 22:28:20 27° SSE 22:34:42 10° ESE daylight
25 Aug - 00:32:13 10° WSW 00:41:00 47° S 00:46:11 10° E daylight
25 Aug - 02:46:45 10° W 02:52:39 51° S 02:56:35 10° ESE daylight
25 Aug - 05:00:26 10° WSW 05:03:27 20° SSW 05:06:12 10° SSE visible
25 Aug - 21:04:07 10° SSW 21:13:25 20° SSE 21:20:10 10° ESE daylight
25 Aug - 23:16:14 10° SW 23:26:46 40° SSE 23:32:59 10° E daylight
26 Aug - 01:31:09 10° WSW 01:38:58 56° S 01:43:40 10° E daylight
26 Aug - 03:45:30 10° W 03:50:12 35° SSW 03:53:43 10° SE visible
26 Aug - 19:51:30 10° S 19:58:08 14° SSE 20:03:40 10° ESE daylight
26 Aug - 22:00:24 10° SW 22:12:05 33° SSE 22:19:25 10° E daylight
27 Aug - 00:14:59 10° WSW 00:24:59 54° S 00:30:40 10° E daylight
27 Aug - 02:30:11 10° W 02:36:47 51° S 02:40:58 10° ESE daylight
27 Aug - 04:44:37 10° WSW 04:47:30 17° SSW 04:50:02 10° SSE visible
27 Aug - 20:45:13 10° SSW 20:57:00 26° SSE 21:05:07 10° ESE daylight
27 Aug - 22:58:33 10° SW 23:10:35 47° SSE 23:17:28 10° E daylight
28 Aug - 01:14:13 10° WSW 01:23:01 60° S 01:28:06 10° ESE daylight
28 Aug - 03:29:12 10° W 03:34:18 33° SSW 03:37:57 10° SE visible
28 Aug - 19:31:25 10° S 19:41:33 19° SSE 19:49:29 10° ESE daylight
28 Aug - 21:42:16 10° SW 21:55:44 40° SSE 22:03:55 10° E daylight
28 Aug - 23:57:41 10° WSW 00:08:53 60° S 00:15:06 10° E daylight
29 Aug - 02:13:30 10° W 02:20:51 51° SSW 02:25:21 10° ESE daylight
29 Aug - 04:28:45 10° WSW 04:31:28 15° SSW 04:33:49 10° S visible
29 Aug - 18:21:32 10° SSE 18:25:53 11° SE 18:29:54 10° SE daylight
29 Aug - 20:26:35 10° SSW 20:40:26 32° SSE 20:49:46 10° E daylight
29 Aug - 22:40:52 10° WSW 22:54:18 54° SSE 23:01:53 10° E daylight
30 Aug - 00:57:13 10° W 01:07:00 63° S 01:12:31 10° ESE daylight
30 Aug - 03:12:45 10° W 03:18:19 31° SSW 03:22:10 10° SE visible
30 Aug - 19:12:08 10° S 19:24:49 24° SSE 19:34:30 10° ESE daylight
30 Aug - 21:24:12 10° SW 21:39:14 46° SSE 21:48:18 10° E daylight
30 Aug - 23:40:19 10° WSW 23:52:42 64° S 23:59:29 10° E daylight
